CAPE
0 0 0 0 0 0 0 0 0 212 359 26 85 102 150 40 58 0 3 354 1110 1439 1840 2379 2319 2040 1814 1539 1260 1333 1351 1356 1436 1545 1710 1742 1834 1887 2054 2150 2194 1974 1272 1164 934 617 632 723 911
0 0 0 0 0 0 0 0 0 64 98 3 31 95 9 3 165 60 23 337 420 1452 1684 2018 2454 2266 1782 1549 1299 1289 1308 1266 1230 1382 1574 1628 1598 1654 1622 1826 2014 1699 1365 1095 761 565 501 598 737
0 0 0 0 0 0 0 0 50 160 85 634 482 202 124 68 252 245 1474 376 671 1534 1573 2181 2534 2342 2043 1704 1403 1377 1306 1300 1209 1096 1417 1614 1676 1558 1547 1577 1620 1340 1250 1241 1136 786 746 615 771
0 0 0 0 0 0 0 0 145 153 627 522 525 663 610 1069 1121 740 1151 422 1017 1313 1802 2491 2509 2467 2262 1840 1632 1455 1320 1284 1255 1237 1407 1552 1671 1818 1567 1699 1779 1554 1303 1143 1049 1123 975 727 708
0 0 0 0 0 0 0 0 120 574 589 1341 1177 873 833 508 323 972 1403 1254 1402 1497 1806 2043 2439 2437 2342 2101 1747 1642 1502 1547 1603 1351 1356 1555 1626 1695 1721 1672 1710 1590 1592 1493 1557 1502 1189 797 706
0 0 0 0 0 0 0 0 140 797 1324 1055 1097 1098 688 29 577 612 305 754 1083 1120 1256 1584 2250 2382 2231 2195 2167 1882 1633 1508 1591 1806 1747 1675 1720 1670 1578 1783 1897 1817 1841 1926 1888 1820 1514 1034 718
0 0 0 0 0 0 0 0 13 66 0 0 28 286 267 25 27 0 0 0 0 0 1 8 19 352 1694 2124 2116 2073 1879 1736 1654 1667 1748 1745 1784 1759 1765 1759 1789 1889 1864 1840 1912 1793 1607 1282 966
0 0 0 0 0 0 0 0 0 0 0 0 0 0 0 0 0 0 0 0 0 0 0 0 0 0 0 957 1726 2292 2218 2165 2092 2063 2030 1925 1830 1816 1795 1665 1550 1756 1833 1839 1749 1672 1572 1381 1194
0 0 0 0 0 0 0 0 0 0 0 0 0 0 0 0 0 0 0 0 0 0 0 0 0 0 7 486 659 724 773 958 1176 1441 1677 1766 1398 1045 1076 1235 1553 1669 1758 1807 1790 1659 1517 1458 1393
0 0 0 0 0 0 0 0 0 0 0 0 0 0 0 0 0 0 0 0 0 0 0 0 0 0 0 0 0 0 0 0 3 44 205 488 691 762 1146 1265 1430 1625 1898 2006 1822 1702 1610 1597 1041
0 0 0 0 0 0 0 0 0 0 0 0 0 0 0 0 0 0 0 0 0 0 0 0 0 0 0 0 0 0 0 0 0 0 0 7 86 167 275 368 408 452 536 836 1061 1177 1239 1247 993
0 0 0 0 0 0 0 0 0 0 0 0 0 0 0 0 0 0 0 0 0 0 0 0 0 0 0 0 0 0 0 0 0 0 0 0 11 21 72 142 193 154 113 237 572 791 818 840 863
0 0 0 0 0 0 0 0 0 0 0 0 0 0 0 0 0 0 0 0 0 0 0 0 0 0 0 0 0 0 0 0 0 0 0 0 0 0 0 0 0 12 21 43 73 186 438 573 695
0 0 0 0 0 0 0 0 0 0 0 0 0 0 0 0 0 0 0 0 0 0 0 0 0 0 0 0 0 0 0 0 0 0 0 0 0 0 0 0 0 0 0 0 0 0 68 324 542
0 0 0 0 0 0 0 0 0 0 0 0 0 0 0 0 0 0 0 0 0 0 0 0 0 0 0 0 0 0 0 0 0 0 0 0 0 0 0 0 0 0 0 0 1 3 189 261 472
0 0 0 0 0 0 0 0 0 0 0 0 0 0 0 0 0 0 0 0 0 0 0 0 0 0 0 0 0 0 0 0 0 0 0 0 0 0 0 0 0 0 0 0 0 83 165 271 575
0 0 0 0 0 0 0 0 0 0 0 0 0 0 0 0 0 0 0 0 0 0 0 0 0 0 0 0 0 0 0 0 0 0 0 0 0 0 0 0 0 0 0 0 0 0 78 241 336
0 0 0 0 0 0 0 0 0 0 0 0 0 0 0 0 0 0 0 0 0 0 0 0 0 0 0 0 0 0 0 0 0 0 0 0 0 0 0 0 0 0 0 0 0 0 0 75 335
0 0 0 0 0 0 0 0 0 0 0 0 0 0 0 0 0 0 0 0 0 0 0 0 0 0 0 0 0 0 0 0 0 0 0 0 0 0 0 0 0 0 0 0 0 0 0 0 237
0 0 0 0 0 0 0 0 0 0 0 0 0 0 0 0 0 0 0 0 0 0 0 0 0 0 0 0 0 0 0 0 0 0 0 0 0 0 0 0 0 0 0 0 0 0 3 18 197
0 0 0 0 0 0 0 0 0 0 0 0 0 0 0 0 0 0 0 0 0 0 0 0 0 0 0 0 0 0 0 0 0 0 0 0 0 0 0 0 0 0 0 0 0 0 3 18 20
0 0 0 0 0 0 0 0 0 0 0 0 0 0 0 0 0 0 0 0 0 0 0 0 0 0 0 0 0 0 0 0 0 0 0 0 0 0 0 0 0 0 0 0 0 4 23 19 25
0 0 0 0 0 0 0 0 0 0 0 0 0 0 0 0 0 0 0 0 0 0 0 0 0 0 0 0 0 0 0 0 0 0 0 0 0 0 0 0 0 0 0 6 7 3 11 16 17
0 0 0 0 0 0 0 0 0 0 0 0 0 0 0 0 0 0 0 0 0 0 0 0 0 0 0 0 0 0 0 0 0 0 0 0 0 0 0 1 4 11 14 11 8 14 16 17 21
0 0 0 0 0 0 0 0 0 0 0 0 0 0 0 0 0 0 0 0 0 0 0 0 0 0 0 0 0 0 0 0 0 0 0 1 3 4 3 1 2 4 16 7 5 11 5 1 2
0 0 0 0 0 0 0 0 0 0 0 0 0 0 0 0 0 0 0 0 0 0 0 0 0 0 0 0 0 0 0 0 0 0 3 5 9 5 8 6 7 27 8 7 18 9 3 9 26
0 0 0 0 0 0 0 0 0 0 0 0 0 0 0 0 0 0 0 0 0 0 0 0 0 0 0 0 0 0 0 0 0 3 6 10 10 6 7 7 5 3 7 6 8 6 7 13 13
0 0 0 0 0 0 0 0 0 0 0 0 0 0 0 0 0 0 0 0 0 0 0 0 0 0 0 0 0 0 2 2 0 3 2 6 6 6 5 6 8 8 8 6 15 20 16 21 18
0 0 0 0 0 0 0 0 0 0 0 0 0 0 0 0 0 0 0 0 0 0 0 0 0 0 0 0 1 0 0 1 1 0 1 2 2 3 4 6 8 10 10 8 6 8 17 21 20
0 0 0 0 0 0 0 0 0 0 0 0 0 0 0 0 0 0 0 0 0 0 0 0 0 0 1 1 0 0 3 2 0 2 2 1 4 9 11 12 11 10 8 6 7 8 12 17 17
CIN
-0 -0 -0 -0 -0 -0 -0 -0 -0 -148 -153 -319 -290 -262 -215 -364 -229 -0 -330 -317 -181 -154 -125 -98 -125 -134 -138 -153 -185 -181 -165 -139 -118 -102 -77 -62 -44 -23 -5 -3 -0 -7 -57 -71 -97 -143 -130 -102 -61
-0 -0 -0 -0 -0 -0 -0 -0 -0 -99 -277 -291 -287 -309 -194 -34 -280 -358 -468 -365 -333 -195 -194 -120 -94 -109 -131 -142 -160 -173 -169 -158 -145 -114 -84 -69 -60 -45 -41 -18 -4 -20 -42 -71 -123 -157 -166 -142 -103
-0 -0 -0 -0 -0 -0 -0 -0 -179 -253 -279 -183 -223 -313 -337 -298 -305 -306 -134 -365 -301 -169 -157 -63 -46 -51 -79 -117 -163 -148 -164 -168 -168 -162 -116 -85 -69 -70 -64 -55 -41 -55 -57 -51 -53 -99 -105 -118 -77
-0 -0 -0 -0 -0 -0 -0 -0 -242 -250 -171 -232 -232 -222 -279 -161 -180 -243 -194 -347 -243 -194 -125 -26 -18 -16 -32 -77 -108 -126 -137 -143 -144 -147 -124 -107 -89 -73 -90 -78 -68 -74 -80 -76 -75 -62 -75 -107 -99
-0 -0 -0 -0 -0 -0 -0 -0 -275 -189 -207 -113 -124 -177 -210 -315 -414 -248 -188 -199 -180 -144 -95 -61 -30 -27 -34 -44 -71 -91 -97 -68 -74 -105 -104 -93 -98 -96 -83 -75 -57 -53 -44 -44 -30 -29 -54 -91 -94
-0 -0 -0 -0 -0 -0 -0 -0 -206 -169 -149 -137 -147 -180 -228 -546 -320 -314 -473 -320 -242 -216 -168 -105 -34 -22 -26 -25 -31 -51 -79 -87 -69 -42 -41 -44 -44 -52 -65 -51 -45 -47 -34 -15 -9 -6 -19 -63 -98
-0 -0 -0 -0 -0 -0 -0 -0 -44 -42 -0 -0 -64 -323 -364 -547 -108 -0 -0 -0 -0 -0 -101 -127 -122 -395 -98 -28 -17 -17 -42 -48 -40 -41 -29 -26 -22 -26 -27 -27 -23 -13 -18 -22 -16 -11 -14 -34 -58
-0 -0 -0 -0 -0 -0 -0 -0 -0 -0 -0 -0 -0 -0 -0 -0 -0 -0 -0 -0 -0 -0 -0 -0 -0 -0 -23 -185 -72 -13 -3 -5 -9 -12 -12 -10 -13 -14 -11 -12 -23 -10 -2 -0 -0 -1 -8 -18 -21
-0 -0 -0 -0 -0 -0 -0 -0 -0 -0 -0 -0 -0 -0 -0 -0 -0 -0 -0 -0 -0 -0 -0 -0 -0 -0 -311 -299 -232 -218 -188 -143 -103 -71 -36 -16 -37 -81 -59 -27 -2 -3 -0 -0 -0 -0 -0 -0 -7
-0 -0 -0 -0 -0 -0 -0 -0 -0 -0 -0 -0 -0 -0 -0 -0 -0 -0 -0 -0 -0 -0 -0 -0 -0 -0 -0 -0 -0 -0 -0 -0 -78 -156 -305 -188 -138 -103 -28 -13 -0 -0 -0 -0 -0 -0 -0 -0 -21
-0 -0 -0 -0 -0 -0 -0 -0 -0 -0 -0 -0 -0 -0 -0 -0 -0 -0 -0 -0 -0 -0 -0 -0 -0 -0 -0 -0 -0 -0 -0 -0 -0 -0 -0 -379 -341 -280 -208 -162 -139 -106 -81 -39 -17 -11 -5 -7 -29
-0 -0 -0 -0 -0 -0 -0 -0 -0 -0 -0 -0 -0 -0 -0 -0 -0 -0 -0 -0 -0 -0 -0 -0 -0 -0 -0 -0 -0 -0 -0 -0 -0 -0 -0 -0 -354 -329 -286 -224 -198 -212 -223 -177 -65 -29 -32 -33 -33
-0 -0 -0 -0 -0 -0 -0 -0 -0 -0 -0 -0 -0 -0 -0 -0 -0 -0 -0 -0 -0 -0 -0 -0 -0 -0 -0 -0 -0 -0 -0 -0 -0 -0 -0 -0 -0 -0 -0 -0 -0 -188 -168 -147 -199 -184 -105 -71 -59
-0 -0 -0 -0 -0 -0 -0 -0 -0 -0 -0 -0 -0 -0 -0 -0 -0 -0 -0 -0 -0 -0 -0 -0 -0 -0 -0 -0 -0 -0 -0 -0 -0 -0 -0 -0 -0 -0 -0 -0 -0 -0 -0 -0 -0 -0 -253 -152 -90
-0 -0 -0 -0 -0 -0 -0 -0 -0 -0 -0 -0 -0 -0 -0 -0 -0 -0 -0 -0 -0 -0 -0 -0 -0 -0 -0 -0 -0 -0 -0 -0 -0 -0 -0 -0 -0 -0 -0 -0 -0 -0 -0 -0 -0 -0 -184 -167 -124
-0 -0 -0 -0 -0 -0 -0 -0 -0 -0 -0 -0 -0 -0 -0 -0 -0 -0 -0 -0 -0 -0 -0 -0 -0 -0 -0 -0 -0 -0 -0 -0 -0 -0 -0 -0 -0 -0 -0 -0 -0 -0 -0 -0 -0 -162 -151 -136 -93
-0 -0 -0 -0 -0 -0 -0 -0 -0 -0 -0 -0 -0 -0 -0 -0 -0 -0 -0 -0 -0 -0 -0 -0 -0 -0 -0 -0 -0 -0 -0 -0 -0 -0 -0 -0 -0 -0 -0 -0 -0 -0 -0 -0 -0 -0 -132 -100 -108
-0 -0 -0 -0 -0 -0 -0 -0 -0 -0 -0 -0 -0 -0 -0 -0 -0 -0 -0 -0 -0 -0 -0 -0 -0 -0 -0 -0 -0 -0 -0 -0 -0 -0 -0 -0 -0 -0 -0 -0 -0 -0 -0 -0 -0 -0 -0 -108 -58
-0 -0 -0 -0 -0 -0 -0 -0 -0 -0 -0 -0 -0 -0 -0 -0 -0 -0 -0 -0 -0 -0 -0 -0 -0 -0 -0 -0 -0 -0 -0 -0 -0 -0 -0 -0 -0 -0 -0 -0 -0 -0 -0 -0 -0 -0 -0 -0 -41
-0 -0 -0 -0 -0 -0 -0 -0 -0 -0 -0 -0 -0 -0 -0 -0 -0 -0 -0 -0 -0 -0 -0 -0 -0 -0 -0 -0 -0 -0 -0 -0 -0 -0 -0 -0 -0 -0 -0 -0 -0 -0 -0 -0 -0 -0 -0 -0 -30
-0 -0 -0 -0 -0 -0 -0 -0 -0 -0 -0 -0 -0 -0 -0 -0 -0 -0 -0 -0 -0 -0 -0 -0 -0 -0 -0 -0 -0 -0 -0 -0 -0 -0 -0 -0 -0 -0 -0 -0 -0 -0 -0 -0 -0 -0 -0 -0 -4
-0 -0 -0 -0 -0 -0 -0 -0 -0 -0 -0 -0 -0 -0 -0 -0 -0 -0 -0 -0 -0 -0 -0 -0 -0 -0 -0 -0 -0 -0 -0 -0 -0 -0 -0 -0 -0 -0 -0 -0 -0 -0 -0 -0 -0 -4 -0 -4 -0
-0 -0 -0 -0 -0 -0 -0 -0 -0 -0 -0 -0 -0 -0 -0 -0 -0 -0 -0 -0 -0 -0 -0 -0 -0 -0 -0 -0 -0 -0 -0 -0 -0 -0 -0 -0 -0 -0 -0 -0 -0 -0 -0 -1 -1 -7 -1 -2 -0
-0 -0 -0 -0 -0 -0 -0 -0 -0 -0 -0 -0 -0 -0 -0 -0 -0 -0 -0 -0 -0 -0 -0 -0 -0 -0 -0 -0 -0 -0 -0 -0 -0 -0 -0 -0 -0 -0 -1 -4 -5 -2 -1 -4 -5 -1 -1 -0 -0
-0 -0 -0 -0 -0 -0 -0 -0 -0 -0 -0 -0 -0 -0 -0 -0 -0 -0 -0 -0 -0 -0 -0 -0 -0 -0 -0 -0 -0 -0 -0 -0 -0 -0 -0 -1 -0 -0 -0 -0 -0 -0 -1 -4 -2 -2 -6 -6 -0
-0 -0 -0 -0 -0 -0 -0 -0 -0 -0 -0 -0 -0 -0 -0 -0 -0 -0 -0 -0 -0 -0 -0 -0 -0 -0 -0 -0 -0 -0 -0 -0 -0 -0 -0 -0 -0 -0 -1 -1 -1 -1 -2 -0 -3 -10 -6 -0 -0
-0 -0 -0 -0 -0 -0 -0 -0 -0 -0 -0 -0 -0 -0 -0 -0 -0 -0 -0 -0 -0 -0 -0 -0 -0 -0 -0 -0 -0 -0 -0 -0 -0 -1 -1 -0 -0 -0 -0 -0 -0 -0 -1 -0 -2 -2 -2 -1 -2
-0 -0 -0 -0 -0 -0 -0 -0 -0 -0 -0 -0 -0 -0 -0 -0 -0 -0 -0 -0 -0 -0 -0 -0 -0 -0 -0 -0 -0 -0 -0 -0 -0 -0 -0 -0 -0 -0 -0 -0 -0 -0 -0 -0 -0 -1 -1 -1 -1
-0 -0 -0 -0 -0 -0 -0 -0 -0 -0 -0 -0 -0 -0 -0 -0 -0 -0 -0 -0 -0 -0 -0 -0 -0 -0 -0 -0 -0 -0 -0 -0 -0 -0 -0 -0 -0 -0 -0 -0 -0 -0 -0 -0 -0 -0 -0 -0 -0
-0 -0 -0 -0 -0 -0 -0 -0 -0 -0 -0 -0 -0 -0 -0 -0 -0 -0 -0 -0 -0 -0 -0 -0 -0 -0 -0 -0 -0 -0 -0 -0 -0 -0 -0 -0 -0 -0 -0 -0 -0 -0 -0 -0 -0 -0 -0 -0 -0
Wind_Speed
5 4 3 4 5 7 4 2 2 3 2 3 5 3 4 4 1 2 4 6 8 6 6 3 10 9 10 10 10 11 11 10 10 10 10 10 10 9 8 7 6 7 7 7 7 7 6 6 6
3 0 4 3 7 6 5 3 3 4 3 7 5 2 2 4 1 1 2 5 6 4 6 4 7 9 9 9 9 10 10 9 9 9 8 8 8 8 8 6 6 7 7 6 6 6 6 7 7
1 3 5 6 4 5 4 3 6 3 7 3 4 4 2 4 2 4 4 5 7 6 5 5 7 6 6 7 9 7 9 10 10 10 9 9 9 8 8 7 7 7 7 6 6 7 6 6 7
3 5 6 7 0 3 4 3 6 5 3 4 5 6 5 8 3 5 2 6 8 6 7 8 8 6 4 4 5 5 5 6 8 9 9 9 9 9 9 10 10 10 9 9 9 8 8 8 8
5 4 6 4 4 3 3 5 5 4 3 3 2 4 6 8 10 9 10 9 11 7 6 7 10 8 5 3 2 3 2 1 3 5 7 8 9 9 9 9 9 9 9 10 10 9 9 9 9
5 4 7 2 6 7 3 6 3 2 2 5 6 5 4 4 11 9 9 9 10 9 7 6 8 6 6 5 4 2 1 2 4 5 6 7 7 7 8 9 10 11 11 11 11 11 10 10 10
7 5 4 1 4 5 5 3 4 3 5 6 2 5 3 9 7 6 11 12 12 10 10 8 7 7 7 6 5 5 3 3 5 5 7 8 9 9 10 10 11 11 11 12 12 12 12 11 11
6 6 3 1 1 4 5 5 0 7 3 3 4 4 4 2 4 7 9 9 11 10 9 7 6 7 6 5 9 7 6 5 6 6 7 8 10 10 11 11 11 13 13 13 13 13 13 12 12
4 7 2 1 3 2 5 6 5 6 6 6 5 3 8 7 4 9 9 10 8 10 8 5 9 11 9 8 8 10 11 12 11 8 9 8 4 5 8 10 14 14 14 14 15 15 15 14 14
6 5 6 3 3 6 5 5 7 5 5 6 10 9 6 5 7 11 8 7 7 6 6 7 8 8 6 6 6 6 5 4 4 5 5 4 5 5 9 11 15 15 15 15 16 17 17 15 8
1 4 4 1 5 7 8 5 4 14 3 5 19 13 6 7 8 9 6 6 5 3 4 6 6 5 6 5 3 2 2 3 4 6 5 4 4 3 4 4 4 5 10 6 8 8 7 10 8
2 3 4 5 7 7 9 12 7 4 9 15 18 15 8 9 8 8 7 6 4 4 4 3 5 6 6 4 4 4 3 3 3 4 5 4 3 3 3 3 5 5 4 6 6 5 8 9 10
3 3 3 5 7 6 7 4 5 3 7 7 7 7 9 8 7 4 7 7 6 5 4 4 4 5 4 5 4 4 4 3 3 3 4 4 5 5 4 4 4 5 5 5 6 8 8 9 10
1 2 1 5 6 5 9 3 4 3 7 7 7 6 5 7 8 5 5 6 6 6 3 2 3 3 3 3 2 2 3 3 3 4 4 5 4 3 3 4 4 4 4 5 6 7 7 7 8
1 4 5 1 6 4 9 5 3 9 10 10 8 6 6 8 7 10 10 8 8 5 6 6 4 3 3 1 1 2 2 3 3 3 4 5 4 4 4 4 4 4 5 6 6 7 7 7 7
4 6 3 4 6 5 5 7 6 11 16 13 10 9 9 8 8 7 8 7 8 6 8 7 5 7 6 4 3 3 3 3 4 4 3 4 4 4 4 3 4 4 4 4 5 6 8 7 7
7 3 2 5 7 6 4 6 5 8 10 9 9 8 7 6 7 6 6 5 7 7 7 6 7 7 7 5 4 4 4 3 4 3 3 5 5 4 3 3 5 5 4 4 5 6 6 7 8
4 2 2 3 1 2 6 4 6 10 12 14 8 8 8 8 11 9 6 4 6 7 5 6 5 6 5 3 2 2 3 4 4 4 4 5 4 5 4 4 5 4 4 5 5 6 6 7 7
4 3 0 3 0 3 5 3 8 6 4 7 7 7 7 9 5 4 4 7 7 7 7 8 6 7 4 3 2 2 3 3 4 4 5 5 4 5 5 5 6 7 6 7 7 6 9 6 4
2 3 0 3 4 4 5 2 3 6 7 9 12 9 9 6 7 4 6 6 8 8 9 8 8 7 4 2 3 3 2 3 3 4 5 5 5 5 6 6 8 9 8 8 8 6 6 6 4
2 5 3 3 4 4 3 5 4 1 2 3 7 9 6 10 8 6 7 9 8 8 8 7 7 7 4 3 2 3 2 3 3 4 4 4 9 11 11 11 9 10 7 8 9 7 9 8 5
3 3 2 2 4 3 3 5 5 4 7 1 4 8 7 6 6 7 7 7 5 6 5 5 3 2 2 4 1 2 2 3 3 4 7 9 11 12 15 14 12 11 9 10 8 8 8 4 7
5 4 3 2 4 3 3 4 8 4 3 2 6 7 6 6 8 8 7 5 2 4 5 4 5 7 5 5 4 3 5 4 5 8 12 12 12 12 13 13 14 14 10 11 10 9 9 7 6
7 6 8 5 3 2 3 5 6 4 6 3 3 5 6 5 6 5 4 3 5 6 6 6 7 5 6 6 7 6 7 11 12 13 12 11 10 10 12 13 12 13 13 12 10 10 9 7 7
6 7 4 5 5 6 3 2 9 5 6 7 8 8 7 6 5 5 1 5 6 7 7 6 7 6 7 7 7 8 11 13 13 13 12 14 11 11 13 16 15 13 13 12 10 9 7 8 9
3 8 8 6 3 5 2 5 6 3 6 5 6 6 4 3 3 2 7 6 6 6 7 6 7 8 9 9 10 10 11 8 9 12 12 11 12 12 14 13 13 13 14 15 10 5 7 9 10
4 3 4 8 3 2 3 6 7 2 2 3 6 4 4 4 4 6 6 6 6 7 7 7 8 10 10 11 11 11 10 11 12 14 13 11 13 13 15 15 15 15 14 15 14 10 10 11 11
4 7 4 3 2 4 5 5 6 5 8 7 7 6 6 2 6 5 6 6 6 6 6 5 6 8 10 10 10 11 12 14 15 14 16 16 15 16 16 16 16 15 15 14 13 10 10 12 8
2 1 6 5 5 6 1 7 7 10 11 11 9 6 4 6 5 5 6 6 5 4 6 8 8 9 11 12 13 16 15 14 15 14 14 15 16 16 16 16 16 15 15 13 12 13 12 12 10
3 6 6 7 5 2 5 9 3 7 4 3 2 5 4 6 6 6 5 4 5 8 8 8 10 11 12 15 16 16 15 14 14 14 16 16 16 15 15 15 15 15 14 13 13 13 12 12 11
Wind_Direction
324 329 116 53 62 60 344 344 262 56 141 61 94 140 159 53 80 204 260 174 101 85 37 102 120 115 115 106 108 113 110 107 109 113 114 117 119 124 127 135 146 156 159 165 170 164 163 170 171
333 141 48 83 79 70 282 276 156 179 67 93 74 94 37 86 49 147 281 1 84 100 126 129 113 121 120 109 111 119 120 124 125 127 128 128 133 139 143 147 158 171 177 181 185 188 187 192 198
298 42 76 85 102 146 183 267 158 101 109 108 127 55 49 15 90 35 322 91 80 73 54 56 87 95 112 121 130 134 138 146 152 155 156 157 159 163 166 171 180 190 198 208 217 216 211 213 219
29 12 38 77 42 224 176 258 116 109 287 190 126 72 86 43 37 331 318 116 80 63 79 90 74 60 79 117 122 133 151 166 172 173 177 178 182 185 190 189 192 200 207 215 219 220 224 221 217
35 58 59 63 303 251 248 208 143 146 341 43 75 99 65 18 0 18 52 78 83 70 72 67 57 56 65 78 92 115 113 287 230 218 218 211 203 200 204 208 216 226 231 233 235 235 232 233 232
42 87 60 48 317 312 4 94 113 92 95 49 53 78 69 322 21 12 45 62 77 73 56 53 65 71 64 48 45 40 83 256 278 284 268 260 256 250 242 237 231 233 238 243 244 246 246 245 245
104 79 146 119 319 20 27 354 49 118 79 25 69 79 105 23 48 59 68 59 55 52 53 31 20 19 30 38 35 12 360 300 288 284 282 276 269 260 257 257 255 255 251 248 244 246 248 250 252
100 90 70 357 341 46 331 78 24 45 33 322 356 116 121 210 90 95 71 70 66 57 50 31 29 22 37 33 24 15 358 342 320 299 290 280 273 271 266 264 263 264 262 261 261 256 252 250 252
119 62 76 129 137 82 358 95 15 26 69 47 346 94 130 142 142 78 67 51 54 52 47 42 45 42 31 39 33 34 6 3 353 340 324 310 287 276 278 274 273 272 271 269 266 261 257 255 250
80 89 203 225 141 130 103 79 127 101 109 69 85 98 113 122 91 82 82 76 59 48 40 45 46 44 42 44 33 31 14 0 7 359 331 307 291 285 290 286 285 281 274 268 263 262 259 258 256
150 154 179 222 112 135 123 83 94 123 339 191 151 157 143 98 76 88 70 80 104 84 56 47 63 54 59 55 47 41 31 20 11 1 348 327 318 287 284 283 283 272 274 269 267 263 256 252 246
45 228 185 168 136 126 142 126 152 191 190 167 156 144 129 130 140 143 143 152 147 126 118 86 55 61 50 50 36 23 24 18 15 354 354 354 348 341 323 307 297 280 280 272 269 266 258 247 248
140 269 169 98 132 127 109 107 144 144 133 121 123 124 145 152 162 153 139 137 141 118 122 99 86 71 52 48 27 26 16 18 359 4 358 8 3 355 338 326 310 305 305 291 286 275 267 261 251
226 69 85 128 143 125 126 137 89 240 136 139 139 154 165 168 169 139 156 164 165 156 170 163 108 80 53 57 36 3 349 347 6 358 351 354 359 351 346 327 326 317 307 300 289 281 274 265 257
71 92 23 238 166 144 111 345 189 159 151 162 180 185 190 207 189 178 179 176 176 195 172 189 188 189 211 227 286 311 315 336 340 336 344 345 353 349 345 331 331 321 320 302 291 285 273 267 260
70 57 95 254 151 191 83 230 229 159 165 181 175 179 185 204 208 201 182 174 179 187 187 193 195 193 210 213 234 258 279 301 305 316 318 317 318 321 335 324 310 305 307 308 309 308 308 288 267
10 162 160 302 204 144 178 233 202 155 163 178 179 173 180 214 250 235 205 181 181 207 194 202 199 205 211 220 225 242 259 266 274 292 298 306 312 303 283 292 295 306 304 301 300 303 296 299 290
203 143 230 230 312 176 172 212 165 169 173 194 181 178 188 208 217 210 211 208 224 238 242 246 224 226 224 237 270 276 270 260 246 261 274 284 293 300 311 300 288 288 290 294 290 289 288 274 280
145 118 310 280 201 138 206 184 172 183 181 192 198 194 201 219 247 232 181 213 228 249 248 246 247 247 223 231 257 274 252 274 283 272 283 285 277 280 287 283 292 292 282 281 280 287 291 287 257
134 115 353 294 354 138 182 206 62 158 206 206 192 189 201 223 249 246 216 221 224 233 234 252 244 254 236 193 225 236 250 270 262 280 293 296 295 294 292 279 284 278 279 273 267 266 286 274 248
58 133 159 183 349 44 60 338 346 293 334 279 218 185 187 212 229 263 243 231 233 234 237 256 255 251 247 241 329 321 306 306 317 301 299 300 310 301 292 286 271 270 258 264 259 256 258 268 279
153 188 120 96 80 213 46 260 295 318 314 317 186 164 193 228 232 235 238 238 226 249 257 274 304 266 14 31 357 321 279 282 270 286 289 289 287 286 290 287 281 279 272 265 255 246 249 243 264
205 90 62 70 90 72 0 79 269 320 294 179 152 161 187 234 223 224 229 245 215 353 348 13 74 51 36 34 29 355 319 283 290 293 294 288 291 285 279 277 282 284 276 268 255 261 247 243 247
144 78 46 49 76 30 219 134 275 207 213 202 192 205 218 221 221 239 217 73 27 43 51 53 66 46 25 18 4 350 319 309 307 304 299 297 298 296 289 283 278 278 279 267 264 257 250 242 244
74 61 347 354 10 222 180 89 240 234 232 193 194 201 210 211 228 254 282 52 59 55 43 49 37 21 8 1 343 325 309 305 300 302 301 302 300 295 293 293 288 287 277 263 257 255 249 255 251
151 145 152 201 207 260 295 231 254 249 275 208 194 180 164 221 260 33 58 65 74 57 48 33 19 6 353 338 325 316 306 299 300 302 301 295 291 293 298 294 290 285 295 296 276 239 260 255 251
178 151 162 103 15 42 268 298 318 215 221 226 203 206 200 274 60 87 82 81 66 55 39 28 10 346 335 328 317 314 314 309 302 297 296 297 296 297 291 291 286 280 276 279 278 262 252 246 244
139 151 78 19 146 261 299 282 236 243 231 230 239 214 235 77 101 99 89 68 48 43 24 5 350 329 316 320 321 319 313 316 315 316 310 302 299 298 296 293 288 283 276 271 270 267 249 253 238
98 117 57 114 129 165 227 264 216 210 213 210 227 188 221 121 117 100 77 59 54 32 10 352 338 337 339 331 327 328 323 321 319 310 304 299 298 296 295 290 287 282 277 272 268 264 257 251 250
143 172 142 127 223 177 148 273 294 253 278 183 191 198 117 124 110 88 71 60 27 15 356 345 350 345 339 336 331 326 324 320 314 310 306 304 303 303 299 295 289 283 276 271 264 260 255 253 246